Voltar ao catálogo

STARLINK-36121

AtivoComunicaçõesVLEO
NORAD 66940·PAYLOAD·🇺🇸 United States

Lançado Dec 7, 2025 de Vandenberg Space Force Base

Loading…

Próximas Passagens (próximas 24 horas)

TLE

AtualizadoSource: CelesTrak SupGP

Época: Sep 15, 2026, 04:09 UTC

1 66940C 25286R   26258.17340278 -.00052080  00000+0 -15389-2 0  2585
2 66940  53.1573 194.6056 0001309  87.8480 140.6697 15.34413840    17

Acompanhe STARLINK-36121 em tempo real com AllMySat

Download on the App Store